DW0152 Weather Reports


time (UTC)temp
C
wind
direction
speed
KPH
gust
KPH
rain 1hr
cm
rain 24hr
cm
rain mn
cm
humidity
%
barometer
mb
20260505214034 10 0 0.0 0.0 0.08 0.64 0.51 94 1009.4
20260505213533 10 0 0.0 0.0 0.08 0.64 0.51 94 1009.2
20260505213044 10 0 0.0 0.0 0.05 0.61 0.48 94 1009.3
20260505212534 10 0 0.0 0.0 0.05 0.61 0.48 94 1009.4
20260505212033 10 0 0.0 0.0 0.05 0.61 0.48 94 1009.3
20260505211543 10 0 0.0 0.0 0.03 0.58 0.46 94 1009.4
20260505211032 10 0 0.0 0.0 0.03 0.58 0.46 94 1009.3
20260505210532 10 0 0.0 0.0 0.03 0.58 0.46 94 1009.4
20260505210045 10 0 0.0 0.0 0.00 0.56 0.46 94 1009.5
20260505205532 10 0 0.0 0.0 0.00 0.61 0.46 94 1009.3
20260505205031 10 0 0.0 0.0 0.00 0.61 0.46 94 1009.4
20260505204548 10 0 0.0 0.0 0.00 0.61 0.46 94 1009.5
20260505204032 10 0 0.0 0.0 0.00 0.58 0.43 94 1009.4
20260505203535 10 0 0.0 0.0 0.00 0.58 0.43 94 1009.4
20260505203104 10 0 0.0 0.0 0.00 0.58 0.43 94 1009.4
20260505202534 10 0 0.0 0.0 0.00 0.58 0.43 94 1009.4
20260505202031 10 0 0.0 0.0 0.00 0.58 0.43 94 1009.3
20260505201547 10 0 0.0 0.0 0.00 0.58 0.43 94 1009.3
20260505201033 10 0 0.0 0.0 0.00 0.58 0.43 94 1009.3
20260505200535 10 0 0.0 0.0 0.00 0.58 0.43 94 1009.3
20260505200049 10 0 0.0 0.0 0.00 0.58 0.43 94 1009.3
20260505195535 10 0 0.0 0.0 0.00 0.58 0.43 94 1009.3
20260505195034 10 0 0.0 0.0 0.00 0.58 0.43 94 1009.4
20260505194548 10 0 0.0 0.0 0.00 0.58 0.43 94 1009.1
20260505194033 10 0 0.0 0.0 0.00 0.58 0.43 94 1009.2
20260505193536 10 0 0.0 0.0 0.00 0.58 0.43 94 1009.2
20260505193046 10 0 0.0 0.0 0.00 0.58 0.43 94 1009.1
20260505192533 10 0 0.0 0.0 0.03 0.58 0.43 94 1009.1
20260505192037 10 0 0.0 0.0 0.00 0.56 0.41 94 1009.0
20260505191550 10 0 0.0 0.0 0.00 0.56 0.41 94 1008.9
20260505191035 10 0 0.0 0.0 0.00 0.56 0.41 94 1009.1
20260505190533 10 0 0.0 1.6 0.00 0.56 0.41 94 1009.0
20260505190043 10 0 0.0 1.6 0.00 0.56 0.41 94 1009.0
20260505185532 10 0 0.0 1.6 0.00 0.74 0.41 94 1008.9
20260505185033 10 0 0.0 1.6 0.00 0.74 0.41 94 1009.1
20260505184542 10 0 0.0 1.6 0.00 0.74 0.41 94 1009.0
20260505184036 10 0 0.0 1.6 0.00 0.74 0.41 94 1009.0
20260505183535 10 0 0.0 0.0 0.00 0.74 0.41 94 1009.0
20260505183046 10 0 0.0 0.0 0.00 0.74 0.41 94 1009.1
20260505182534 10 0 0.0 0.0 0.00 0.74 0.38 94 1008.9
20260505182032 10 0 0.0 0.0 0.00 0.74 0.38 94 1009.0
20260505181547 10 0 0.0 0.0 0.00 0.74 0.38 94 1008.9
20260505181034 10 0 0.0 0.0 0.00 0.74 0.38 94 1008.9
20260505180532 10 0 0.0 1.6 0.00 0.74 0.38 94 1008.9
20260505180050 10 0 0.0 1.6 0.00 0.74 0.38 94 1008.9
20260505175531 10 0 0.0 3.2 0.00 0.86 0.38 94 1009.0
20260505175031 10 0 0.0 3.2 0.00 0.86 0.38 94 1008.9
20260505174547 10 0 0.0 3.2 0.00 0.86 0.38 94 1008.9
20260505174033 10 0 0.0 1.6 0.00 0.86 0.38 94 1008.9
20260505173531 11 0 0.0 1.6 0.00 0.86 0.38 94 1008.9
20260505173043 11 0 0.0 1.6 0.00 0.86 0.38 94 1008.9
20260505172530 11 0 0.0 1.6 0.00 0.86 0.38 94 1009.0
20260505172034 11 0 0.0 0.0 0.00 0.86 0.38 94 1008.9
20260505171544 11 0 0.0 0.0 0.00 0.86 0.38 94 1009.1
20260505171035 11 0 0.0 0.0 0.00 0.86 0.38 94 1009.1
20260505170534 11 0 0.0 1.6 0.00 0.86 0.38 94 1009.0
20260505170104 11 0 0.0 1.6 0.00 0.86 0.38 94 1009.1
20260505165534 11 0 0.0 1.6 0.00 0.86 0.38 94 1009.0
20260505165031 11 0 0.0 3.2 0.00 0.86 0.38 94 1009.0
20260505164542 11 0 0.0 3.2 0.00 0.86 0.38 94 1009.1
20260505164034 11 0 0.0 1.6 0.00 0.86 0.38 94 1009.3
20260505163535 11 0 0.0 1.6 0.00 0.86 0.38 94 1009.1
20260505163044 11 0 0.0 1.6 0.00 0.86 0.38 94 1009.1
20260505162535 11 0 0.0 3.2 0.00 0.86 0.38 95 1009.0
20260505162034 11 0 0.0 3.2 0.00 0.86 0.38 95 1009.0
20260505161543 11 0 0.0 3.2 0.00 0.86 0.38 95 1009.0
20260505161031 11 0 0.0 1.6 0.00 0.86 0.38 95 1009.2
20260505160534 11 0 0.0 4.8 0.00 0.86 0.38 95 1009.1
20260505153056 11 0 0.0 3.2 0.00 0.86 0.38 95 1009.2
20260505152533 11 0 0.0 3.2 0.00 0.84 0.36 95 1009.3
20260505152031 11 0 0.0 3.2 0.00 0.84 0.36 95 1009.3
20260505151558 11 0 0.0 1.6 0.00 0.84 0.36 95 1009.2
20260505151031 10 0 0.0 3.2 0.00 0.84 0.36 95 1009.3
20260505150537 10 0 0.0 3.2 0.00 0.84 0.36 95 1009.4
20260505140531 10 0 0.0 3.2 0.00 0.84 0.36 95 1009.7
20260505125036 10 0 0.0 3.2 0.00 0.84 0.36 95 1010.3
20260505124549 10 0 0.0 1.6 0.00 0.84 0.36 95 1010.1
20260505124032 10 0 0.0 3.2 0.00 0.84 0.36 95 1010.3
20260505123538 10 0 0.0 3.2 0.00 0.84 0.36 95 1010.2
20260505123047 10 0 0.0 3.2 0.00 0.84 0.36 95 1010.2
20260505122538 10 0 0.0 3.2 0.00 0.84 0.36 95 1010.2
20260505122034 10 0 0.0 3.2 0.00 0.84 0.36 95 1010.1
20260505121558 10 0 0.0 1.6 0.00 0.84 0.36 95 1010.3
20260505121036 10 0 0.0 1.6 0.00 0.84 0.36 95 1010.3
20260505120535 10 0 0.0 3.2 0.00 0.84 0.36 95 1010.2
20260505120048 10 0 0.0 3.2 0.00 0.84 0.36 95 1010.3
20260505115537 10 0 0.0 3.2 0.00 0.84 0.36 95 1010.4
20260505115034 11 0 0.0 3.2 0.00 0.84 0.36 95 1010.3
20260505114548 11 0 0.0 3.2 0.00 0.84 0.36 95 1010.3
20260505114036 11 0 0.0 3.2 0.00 0.84 0.36 95 1010.4
20260505113534 10 0 0.0 1.6 0.00 0.84 0.36 95 1010.4
20260505113047 10 0 0.0 1.6 0.00 0.84 0.36 95 1010.4
20260505112532 11 0 0.0 3.2 0.00 0.84 0.36 95 1010.4
20260505112036 10 0 0.0 3.2 0.00 0.84 0.36 96 1010.4
20260505111546 10 0 0.0 8.0 0.00 0.84 0.36 96 1010.6
20260505111036 10 0 0.0 8.0 0.00 0.84 0.36 96 1010.6
20260505110536 10 0 0.0 3.2 0.00 0.84 0.36 96 1010.6
20260505100538 10 5 0.0 1.6 0.00 0.84 0.36 95 1010.5
20260505100045 10 0 0.0 4.8 0.00 0.84 0.36 95 1010.6
20260505095535 10 0 0.0 4.8 0.00 0.84 0.36 95 1010.6
20260505095036 10 0 0.0 3.2 0.00 0.84 0.36 95 1010.6
20260505094545 10 0 0.0 3.2 0.00 0.84 0.36 95 1010.6
20260505094035 10 0 0.0 3.2 0.00 0.84 0.36 95 1010.5
20260505093535 10 0 0.0 3.2 0.00 0.84 0.36 95 1010.6
20260505093044 10 0 0.0 1.6 0.00 0.84 0.36 95 1010.5
20260505092535 10 0 0.0 1.6 0.00 0.84 0.36 95 1010.5
20260505092034 10 312 0.0 1.6 0.00 0.84 0.36 95 1010.4
20260505091544 10 0 0.0 3.2 0.00 0.84 0.36 95 1010.6
20260505091037 10 0 0.0 3.2 0.00 0.84 0.36 95 1010.5
20260505090535 10 0 0.0 1.6 0.00 0.84 0.36 95 1010.6
20260505090059 10 0 0.0 1.6 0.00 0.84 0.36 95 1010.7
20260505085536 10 0 0.0 3.2 0.00 0.84 0.36 95 1010.6
20260505085035 10 0 0.0 3.2 0.00 0.84 0.36 95 1010.7
20260505084551 10 0 0.0 4.8 0.00 0.84 0.36 95 1010.6
20260505084036 10 0 0.0 4.8 0.00 0.84 0.36 95 1010.7
20260505083533 10 0 0.0 3.2 0.00 0.84 0.36 95 1010.7
20260505083045 10 0 0.0 3.2 0.00 0.84 0.36 95 1010.7
20260505082534 10 30 0.0 3.2 0.00 0.84 0.36 95 1010.7
20260505082035 10 0 0.0 3.2 0.00 0.84 0.36 95 1010.7
20260505081545 10 29 0.0 3.2 0.00 0.84 0.36 95 1010.8
20260505081036 10 0 0.0 3.2 0.00 0.84 0.36 95 1010.8
20260505080534 10 0 0.0 3.2 0.00 0.84 0.36 95 1010.8
20260505080042 10 0 0.0 3.2 0.00 0.84 0.36 95 1010.6
20260505075537 10 0 0.0 3.2 0.00 0.84 0.36 95 1010.6
20260505075035 10 11 0.0 3.2 0.00 0.84 0.36 95 1010.6
20260505074541 10 0 0.0 3.2 0.00 0.84 0.36 95 1010.6
20260505074034 10 0 0.0 3.2 0.00 0.84 0.36 95 1010.8
20260505073534 10 0 0.0 1.6 0.00 0.84 0.36 95 1010.7
20260505073048 10 0 0.0 1.6 0.00 0.84 0.36 95 1010.7
20260505072535 10 0 0.0 1.6 0.00 0.84 0.36 95 1010.8
20260505072035 10 0 0.0 1.6 0.00 0.84 0.36 95 1010.8
20260505071546 10 0 0.0 1.6 0.00 0.84 0.36 95 1010.8
20260505071035 10 0 0.0 1.6 0.00 0.84 0.36 95 1010.7
20260505070538 10 0 0.0 1.6 0.00 0.84 0.36 95 1010.8
20260505070045 10 0 0.0 4.8 0.00 0.84 0.36 95 1010.7
20260505065535 10 0 0.0 4.8 0.00 0.84 0.36 95 1010.6
20260505065034 10 0 0.0 4.8 0.00 0.84 0.36 95 1010.7
20260505064549 10 0 0.0 3.2 0.00 0.84 0.36 95 1010.6
20260505064034 10 0 0.0 3.2 0.00 0.84 0.36 95 1010.7
20260505063534 10 352 0.0 3.2 0.00 0.84 0.36 95 1010.7
20260505063048 10 0 0.0 3.2 0.00 0.84 0.36 95 1010.8
20260505062534 10 0 0.0 3.2 0.00 0.84 0.36 95 1010.7
20260505062034 10 0 0.0 1.6 0.00 0.84 0.36 95 1010.8
20260505061547 10 0 0.0 3.2 0.00 0.84 0.36 95 1010.9
20260505061035 10 0 0.0 4.8 0.00 0.84 0.36 95 1011.0
20260505060534 10 0 0.0 4.8 0.00 0.84 0.36 95 1010.9
20260505060049 10 20 0.0 4.8 0.00 0.84 0.36 95 1010.9
20260505055535 10 0 0.0 4.8 0.00 0.84 0.36 95 1010.9
20260505055034 10 0 0.0 3.2 0.00 0.84 0.36 95 1010.9
20260505054547 10 0 0.0 3.2 0.00 0.84 0.36 95 1010.9
20260505054035 10 0 0.0 3.2 0.00 0.84 0.36 95 1010.9
20260505053533 11 0 0.0 3.2 0.00 0.84 0.36 95 1010.8
20260505053048 11 24 0.0 3.2 0.00 0.84 0.36 95 1010.8
20260505052535 11 0 0.0 3.2 0.00 0.84 0.36 95 1010.7
20260505052035 11 0 0.0 4.8 0.00 0.84 0.36 95 1010.7
20260505051542 11 0 0.0 4.8 0.00 0.84 0.36 95 1010.7
20260505051035 11 26 0.0 3.2 0.00 0.84 0.36 95 1010.7
20260505050535 11 0 0.0 3.2 0.00 0.84 0.36 95 1010.7
20260505041543 11 0 0.0 4.8 0.08 0.84 0.36 95 1010.7
20260505041035 11 0 0.0 4.8 0.08 0.84 0.36 95 1010.8
20260505040535 11 52 0.0 4.8 0.08 0.84 0.36 94 1010.8
20260505040050 11 0 0.0 3.2 0.08 0.84 0.36 94 1010.9
20260505035534 11 5 0.0 1.6 0.08 0.84 0.36 94 1010.8
20260505035034 11 0 0.0 1.6 0.08 0.84 0.36 95 1011.0
20260505034546 11 5 0.0 1.6 0.08 0.84 0.36 95 1010.9
20260505034036 11 0 0.0 3.2 0.08 0.84 0.36 95 1010.9
20260505033535 11 0 0.0 3.2 0.08 0.84 0.36 95 1010.9
20260505033102 11 0 0.0 1.6 0.08 0.84 0.36 95 1010.9
20260505032536 11 0 0.0 1.6 0.03 0.81 0.33 94 1010.9
20260505032035 11 0 0.0 3.2 0.00 0.79 0.30 94 1010.9
20260505031545 11 0 0.0 3.2 0.00 0.76 0.28 94 1010.8
20260505031035 11 0 0.0 1.6 0.00 0.76 0.28 94 1010.9
20260505030536 11 0 0.0 3.2 0.00 0.76 0.28 94 1010.9
20260505030044 11 0 0.0 3.2 0.00 0.76 0.28 94 1010.9
20260505025535 11 0 0.0 4.8 0.00 0.76 0.28 94 1011.0
20260505025034 11 0 0.0 4.8 0.00 0.76 0.28 94 1010.9
20260505024539 11 0 0.0 3.2 0.00 0.76 0.28 94 1010.9
20260505024034 12 0 0.0 3.2 0.00 0.76 0.28 94 1011.0
20260505023534 12 0 0.0 3.2 0.00 0.76 0.28 94 1010.9
20260505023059 12 0 0.0 3.2 0.00 0.76 0.28 94 1011.0
20260505022535 12 350 0.0 1.6 0.00 0.76 0.28 94 1011.1
20260505022034 12 0 0.0 1.6 0.00 0.76 0.28 94 1011.1
20260505021545 12 0 0.0 1.6 0.00 0.76 0.28 94 1011.0
20260505021034 12 0 0.0 1.6 0.00 0.76 0.28 94 1011.0
20260505020534 12 0 0.0 3.2 0.00 0.76 0.28 94 1011.0
20260505020051 12 0 0.0 3.2 0.00 0.76 0.28 94 1011.0
20260505015535 12 298 0.0 1.6 0.00 0.76 0.28 94 1011.0
20260505015038 12 0 0.0 1.6 0.00 0.76 0.28 94 1011.0
20260505014546 12 0 0.0 1.6 0.00 0.76 0.28 94 1011.0
20260505014034 12 0 0.0 3.2 0.00 0.76 0.28 94 1010.9
20260505013535 12 0 0.0 3.2 0.00 0.76 0.28 94 1011.0
20260505013044 12 0 0.0 3.2 0.00 0.76 0.28 94 1011.1
20260505012535 12 0 0.0 1.6 0.00 0.76 0.28 94 1011.1
20260505012035 12 0 0.0 3.2 0.00 0.76 0.28 94 1011.0
20260505011542 12 0 0.0 3.2 0.00 0.76 0.28 94 1011.0
20260505011034 12 0 0.0 3.2 0.00 0.76 0.28 94 1011.0
20260505010534 12 0 0.0 3.2 0.00 0.76 0.28 94 1011.1
20260505010049 12 0 0.0 3.2 0.00 0.76 0.28 94 1011.2
20260505005534 12 0 0.0 3.2 0.00 0.76 0.28 94 1011.2
20260505005035 12 0 0.0 3.2 0.00 0.76 0.28 94 1011.2
20260505004550 12 0 0.0 3.2 0.00 0.76 0.28 94 1011.3
20260505004034 12 0 0.0 1.6 0.00 0.76 0.28 94 1011.3
20260505003534 12 0 0.0 3.2 0.00 0.76 0.28 94 1011.3
20260505003045 12 0 0.0 3.2 0.00 0.76 0.28 94 1011.2
20260505002534 13 0 0.0 3.2 0.00 0.76 0.28 94 1011.2
20260505002035 13 352 0.0 1.6 0.03 0.76 0.28 94 1011.3
20260505001546 13 0 0.0 1.6 0.03 0.76 0.28 94 1011.4
20260505001034 13 0 0.0 1.6 0.05 0.76 0.28 94 1011.4
20260505000539 13 0 0.0 0.0 0.05 0.76 0.28 94 1011.5
20260505000046 13 0 0.0 1.6 0.05 0.76 0.28 93 1011.5
20260504235534 13 0 0.0 1.6 0.08 0.76 0.28 93 1011.5
20260504235034 13 352 0.0 1.6 0.08 0.76 0.28 93 1011.6
20260504234613 13 0 0.0 1.6 0.10 0.76 0.28 93 1011.6
20260504234034 13 0 0.0 0.0 0.10 0.74 0.28 93 1011.5
20260504233534 13 0 0.0 0.0 0.15 0.74 0.28 93 1011.6
20260504233041 13 0 0.0 0.0 0.18 0.74 0.28 93 1011.6
20260504232535 13 0 0.0 0.0 0.18 0.74 0.28 93 1011.6
20260504232034 13 0 0.0 0.0 0.18 0.74 0.25 93 1011.5
20260504231552 13 0 0.0 1.6 0.18 0.74 0.25 93 1011.5
20260504231034 13 0 0.0 1.6 0.18 0.71 0.23 93 1011.5
20260504230535 13 0 0.0 0.0 0.20 0.71 0.23 93 1011.6
20260504230047 13 0 0.0 0.0 0.23 0.71 0.23 93 1011.7
20260504225535 13 0 0.0 1.6 0.20 0.69 0.20 93 1011.7
20260504225035 13 0 0.0 1.6 0.18 0.66 0.18 93 1011.8
20260504224544 13 0 0.0 1.6 0.18 0.64 0.18 93 1011.8
20260504224034 13 0 0.0 1.6 0.18 0.64 0.15 93 1011.7
20260504223534 13 0 0.0 0.0 0.15 0.58 0.10 93 1011.8
20260504223042 13 0 0.0 1.6 0.15 0.56 0.08 93 1011.9
20260504222536 13 0 0.0 1.6 0.18 0.56 0.08 93 1011.9
20260504222035 13 0 0.0 1.6 0.15 0.53 0.05 93 1012.0
20260504221544 13 0 0.0 1.6 0.15 0.53 0.05 93 1012.1
20260504221036 13 0 0.0 1.6 0.13 0.51 0.03 93 1012.1
20260504220534 13 0 0.0 1.6 0.10 0.48 0.00 93 1012.1
20260504220042 13 0 0.0 4.8 0.10 0.46 0.00 92 1012.2
20260504215535 13 0 0.0 4.8 0.10 0.46 0.46 92 1012.2
20260504215035 13 0 0.0 1.6 0.13 0.46 0.46 92 1012.2
20260504214544 13 0 0.0 0.0 0.10 0.46 0.46 92 1012.3